User: anonymous   Login
Location: Lake Runnemede Observatory
(43.4843°N, 72.3851°W)
Time: 12:11:31
(UTC-04:00)
Language:

SPOT 5 - Orbit

View from above orbital plane
View from above orbital plane
View from above satellite
View from above satellite

Ground track
Ground track

The orbit data is extracted from the following two-line orbital elements,

1 27421U 02021A   18173.77254991  .00000037  00000-0  20051-4 0  9997
2 27421  98.3580 241.4376 0134252 273.4200  85.1645 14.51935545839442
Epoch (UTC): 22 June 2018 18:32:28
Eccentricity: 0.0134252
inclination: 98.3580°
perigee height: 624 km
apogee height: 814 km
right ascension of ascending node: 241.4376°
argument of perigee: 273.4200°
revolutions per day: 14.51935545
mean anomaly at epoch: 85.1645°
orbit number at epoch: 83944

The dashed part of the orbit path shows where the satellite is in the earth's shadow,  

DLR